Regional Weather Roundup
Issued by NWS

Home | Current Version | Previous Version | Text Only | Print | Product List | Glossary On
Versions: 1 2 3 4 5 6 7 8 9 10 11 12 13 14 15 16 17 18 19 20 21 22 23 24 25 26 27 28 29 30 31 32 33 34 35 36 37 38 39 40 41 42 43 44 45 46 47 48 49 50
000
ASUS45 KCYS 240210
RWRWY

WYOMING REGIONAL WEATHER ROUNDUP
NATIONAL WEATHER SERVICE CHEYENNE WY
700 PM MST THU NOV 23 2017

NOTE:  "FAIR" INDICATES FEW OR NO CLOUDS BELOW 12,000 FEET
WITH NO SIGNIFICANT WEATHER AND/OR OBSTRUCTIONS TO VISIBILITY.

WYZ001-240300-
YELLOWSTONE NATIONAL PARK

CITY           SKY/WX    TMP DP  RH WIND       PRES   REMARKS
LK YELLOWSTONE   N/A     41  34  76 W8        30.02F
W YELLOWSTONE  NOT AVBL

$$
WYZ002>013-054>058-071-098>099-240300-
NORTHERN WYOMING

CITY           SKY/WX    TMP DP  RH WIND       PRES   REMARKS
JACKSON          N/A    N/A N/A N/A MISG        N/A
CODY           FAIR      59  30  33 W13G22    29.81F
GREYBULL       FAIR      44  37  76 SE6       29.80F
WORLAND        FAIR      44  38  79 SE10      29.83F
SHERIDAN       FAIR      64  31  28 SW9       29.71F
BUFFALO        FAIR      55  28  35 VRB5      29.78F
GILLETTE       FAIR      58  35  42 SW20      29.74F
HULETT         FAIR      55  34  44 SW13G18   29.73F
NEWCASTLE      FAIR      45  32  61 NE6       29.80F

$$
WYZ014>020-022>026-101>103-240300-
CENTRAL WYOMING

CITY           SKY/WX    TMP DP  RH WIND       PRES   REMARKS
BIG PINEY      FAIR      48  34  58 SW3       30.11F
PINEDALE       CLOUDY    37  36  93 N3        30.12F
DUBOIS         FAIR      43  32  65 NW9G21    30.00F
LANDER         FAIR      55  30  38 VRB3      29.93F
RIVERTON       FAIR      53  30  41 W5        29.93F
CASPER         FAIR      57  36  45 SW23G30   29.92F
DOUGLAS        FAIR      59  38  45 W8G17     29.87F

$$
WYZ021-027>030-104>119-240300-
SOUTHERN WYOMING

CITY           SKY/WX    TMP DP  RH WIND       PRES   REMARKS
EVANSTON       MOCLDY    47  33  58 SW8       30.18F
KEMMERER       FAIR      43  32  65 SW12      30.15S
FORT BRIDGER   FAIR      50  34  53 W20G25    30.17F
ROCK SPRINGS   FAIR      51  33  50 W17       30.13F
DIXON          FAIR      44  32  62 NW3       30.19S
RAWLINS        FAIR      50  35  56 SW17      30.09F
SARATOGA       FAIR      48  32  53 NE5       30.14S
LARAMIE        FAIR      50  30  46 S17G28    30.10R
CHEYENNE       FAIR      54  30  40 W13       29.99F
TORRINGTON     FAIR      63  37  38 W17G24    29.84F
PINE BLUFFS    FAIR      59  28  31 W14       29.94F

$$



USA.gov is the U.S. government's official web portal to all federal, state and local government web resources and services.